Location: Bremen
(53.0793°N, 8.8017°E)
Time: 02:29:56
(UTC+01:00)

Transit 2A - Pass Details

Date: 06 December 2021
Orbit: 591 x 967 km, 66.7° (Epoch: 17 January)

Event Time Altitude Azimuth Distance (km) Brightness Sun altitude
Exits shadow 05:31:46 21° 342° (NNW) 2,019 7.9 -24.3°
Maximum altitude 05:34:17 27° 16° (NNE) 1,777 7.9 -24.0°
Drops below altitude 10° 05:39:37 10° 73° (ENE) 2,704 9.7 -23.2°
Sets 05:42:36 0° 85° (E) 3,627 10.9 -22.7°
